Powrót do katalogu

ONEWEB-0594

AktywnyŁącznośćPO
NORAD 54660·PAYLOAD·🇬🇧 United Kingdom

Wystrzelony Dec 8, 2022 z Cape Canaveral Space Force Station

Loading…

Następne Przeloty (najbliższe 24 godziny)

TLE

ŚwieżeSource: CelesTrak SupGP

Epoka: Sep 14, 2026, 13:09 UTC

1 54660C 22166U   26257.54841852 -.00001262  00000+0 -30586-2 0  2570
2 54660  87.9273 226.2014 0002066  78.5172  31.5434 13.21829264    19

Śledź ONEWEB-0594 w czasie rzeczywistym z AllMySat

Download on the App Store